Weather in Kuznetskoye

Russia / Chelyabinsk Oblast     55°29′32″N   60°38′21″E
temp.,
°C
wind,
m/s
gust,
m/s
humid.,
%
clouds,
%
prec.,
mm/h
press.,
hPa
HPBL,
m
28 june, tue
tue2823:00+14sw51076100 0.0 1006383
02:00+12sw51296100 2.4 1004435
05:00+11n7109391 3.0 1004541
08:00+9nnw598978 0.1 1006723
11:00+9nw6670100 0.1 10071246
14:00+13nnw684799 0.0 10072243
17:00+10nnw7858100 0.1 10091473
20:00+8nw596654 0.1 10091156
29 june, wed
wed2923:00+5wnw49765 0.1 1010267
02:00+5nw5117976 0.0 1009506
05:00+4nw61279100 0.0 1009871
08:00+5nw71389100 0.1 1008834
11:00+8nw71281100 0.1 10081124
14:00+10nw71273100 0.0 10081214
17:00+12nw6106564 0.0 10081155
20:00+14wnw496557 0.0 1007287
30 june, thu
thu3023:00+12wnw4971100 0.0 1007216
02:00+11wnw497275 0.0 1007269
05:00+9w51081100 0.0 1007243
08:00+12wnw597199 0.0 1007403
11:00+16nw465079 0.0 10061871
14:00+17nnw444294 0.0 10062335
17:00+17ne124993 0.0 10061799
20:00+13ene367597 0.1 1007171
1 july, fri
fri123:00+10ene398898 0.2 1009305
02:00+8ne3785100 0.0 1010299
05:00+7ne4892100 0.4 1011340
08:00+6ne3592100 0.5 1012266
11:00+9ne3479100 0.6 1012454
14:00+14e016619 0.0 1012783
17:00+16e226282 0.0 10111260
20:00+15se11745 0.1 101123
2 july, sat
sat223:00+10n11855 0.1 101210
02:00+9nnw229043 0.0 101214
05:00+8nw22915 0.0 101123
08:00+13nw3472100 0.0 1011252
11:00+17nnw245362 0.0 10091452
14:00+17nw3664100 0.0 1008472
17:00+13nnw3892100 0.4 1009544
20:00+12wnw31191100 0.1 1008366